Regional Weather Roundup
Issued by NWS

Home | Current Version | Previous Version | Text Only | Print | Product List | Glossary Off
Versions: 1 2 3 4 5 6 7 8 9 10 11 12 13 14 15 16 17 18 19 20 21 22 23 24 25 26 27 28 29 30 31 32 33 34 35 36 37 38 39 40 41 42 43 44 45 46 47 48 49 50

287
ASUS43 KLSX 230510
RWRMO

WEATHER SUMMARY FOR MISSOURI
NATIONAL WEATHER SERVICE SPRINGFIELD MO
1100 PM CST SUN JAN 22 2017

NOTE: "FAIR" INDICATES FEW OR NO CLOUDS BELOW 12,000 FEET WITH NO
       SIGNIFICANT WEATHER AND/OR OBSTRUCTIONS TO VISIBILITY.
       CURRENT SKY AND/OR WEATHER CONDITIONS ARE NOT AVAILABLE FOR
       CHILLICOTHE AND FARMINGTON.

MOZ001>031-035>038-043-044-053-054-230600-
...NORTHERN AND WESTERN MISSOURI...

CITY           SKY/WX    TMP DP  RH WIND       PRES   REMARKS
KANSAS CTY INT CLOUDY    36  31  82 N8        29.89R WCI  30
KANSAS C DTWN  CLOUDY    40  35  83 NW10      29.90R
LEE`S SUMMIT   CLOUDY    39  35  86 NW9       29.89R
ST JOSEPH      CLEAR     32  32 100 N5        29.90R WCI  27
CHILLICOTHE      N/A     39  36  89 NW6       29.88R
KIRKSVILLE     CLOUDY    38  36  92 NW7       29.83R

$$
MOZ066>068-077>081-088>096-101>105-230600-
...SOUTHWEST MISSOURI...

CITY           SKY/WX    TMP DP  RH WIND       PRES   REMARKS
SPRINGFIELD    CLOUDY    37  35  92 NW9       29.84R
JOPLIN         CLOUDY    37  35  92 N9        29.90R
BRANSON        LGT RAIN  36  36 100 NW10G17   29.83R WCI  28

$$
MOZ032>034-039>042-045>050-055>058-069>072-230600-
...CENTRAL MISSOURI...

CITY           SKY/WX    TMP DP  RH WIND       PRES   REMARKS
COLUMBIA       CLOUDY    41  35  79 N10       29.81R
JEFFERSON CITY LGT RAIN  41  35  79 NW10      29.83R
ROLLA          CLOUDY    38  35  89 N16G25    29.78R WCI  29
SEDALIA        CLOUDY    40  37  89 NW10      29.86R
WHITEMAN AFB   CLOUDY    39  39 100 NW9       29.86R
WARRENSBURG    CLOUDY    37  34  87 W8        29.88R
OSAGE BEACH    LGT RAIN  39  37  93 NW6       29.83R

$$
MOZ051-052-059>065-230600-
...EAST CENTRAL MISSOURI...

CITY           SKY/WX    TMP DP  RH WIND       PRES   REMARKS
ST LOUIS INTL  CLOUDY    41  35  79 NW16      29.73R
SPIRIT OF STL  CLOUDY    41  37  86 NW13      29.75R
ST CHARLES     CLOUDY    41  36  82 NW12      29.74S

$$
MOZ072>076-082>087-097>100-106>115-230600-
...SOUTH CENTRAL AND SOUTHEAST MISSOURI...

CITY           SKY/WX    TMP DP  RH WIND       PRES   REMARKS
CAPE GIRARDEAU PTCLDY    47  38  71 N22G31    29.59R
FARMINGTON     CLOUDY    42  37  82 NW17      29.69R
POPLAR BLUFF   PTCLDY    50  40  68 N25G32    29.60R
WEST PLAINS    CLOUDY    39  35  86 NW17G26   29.73R WCI  30

$$




USA.gov is the U.S. government's official web portal to all federal, state and local government web resources and services.